[Iaude] MPEC G147: 2024 GA3 [a=2.26,e=0.46,i=11.5,H=23.5]

mpec at cfa.harvard.edu mpec at cfa.harvard.edu
Thu Apr 11 06:57:51 EDT 2024


M.P.E.C. 2024-G147                               Issued 2024 April 11, 10:56 UT

     The Minor Planet Electronic Circulars contain information on unusual
         minor planets, routine data on comets and natural satellites,
         and occasional editorial announcements.  They are published
    on behalf of Division F of the International Astronomical Union by the
          Minor Planet Center, Smithsonian Astrophysical Observatory,
                          Cambridge, MA 02138, U.S.A.
			  
             Prepared using the Tamkin Foundation Computer Network

                              MPC at CFA.HARVARD.EDU
            URL https://www.minorplanetcenter.net/    ISSN 1523-6714

                                    2024 GA3                                    


Observations:
     K24G03A* C2024 04 06.90306 14 53 37.66 +30 45 28.4          22.1 rVEG147O18
     K24G03A  C2024 04 06.90956 14 53 38.03 +30 45 22.1          21.9 rVEG147O18
     K24G03A  C2024 04 06.91605 14 53 38.40 +30 45 16.2          21.7 rVEG147O18
     K24G03A  C2024 04 09.37873614 56 13.121+30 05 52.12         23.78GVEG147V00
     K24G03A  C2024 04 09.38497914 56 13.402+30 05 45.82         22.27GVEG147V00
     K24G03A  C2024 04 09.39120614 56 13.672+30 05 39.26         22.61GVEG147V00
     K24G03A  C2024 04 09.39742314 56 13.974+30 05 32.39         22.75GVEG147V00
     K24G03A  C2024 04 11.42387814 58 07.457+29 27 41.05         22.7 GVEG147H01
     K24G03A  C2024 04 11.42769314 58 07.616+29 27 36.22         22.8 GVEG147H01
     K24G03A  C2024 04 11.43928414 58 08.109+29 27 22.13         22.6 GVEG147H01
     K24G03A  C2024 04 11.44591914 58 08.400+29 27 14.01         21.9 GVEG147H01

Observer details:
H01 Magdalena Ridge Observatory, Socorro.  Observers W. H. Ryan, E. V. Ryan.
    Measurer W. H. Ryan.  2.4-m f/8.9 Ritchey-Chretien + CCD.
O18 WFST, Lenghu.  Observers Z. Lou, Z. Q. Li, S. X. Li, Q. Y. Hai, K. Yan.
    Measurers B. Li, H. B. Zhao, Z. J. Xu, G. T. Zhaori.  2.5-m f/2.48
    reflector + CCD.
V00 Kitt Peak-Bok.  Observer R. A. Mastaler.  Measurers M. J. Brucker, C. E.
    Woodward, T. Beuden, V. F. Carvajal, D. Fay, J. B. Fazekas, D. C. Fuls, A.
    R. Gibbs, H. Groeller, J. K. Hogan, R. A. Kowalski, S. M. Larson, C.
    Lejoly, G. J. Leonard, R. A. Mastaler, R. S. McMillan, D. Rankin, R. L.
    Seaman, F. C. Shelly, K. W. Wierzchos.  2.25-m reflector + 4x4K mosaic
    CCD.

Orbital elements:
2024 GA3                                                 Earth MOID = 0.2663 AU
Epoch 2024 Mar. 31.0 TT = JDT 2460400.5                 MPC                     
M 355.45231              (2000.0)            P               Q                  
n   0.29003522     Peri.  127.85719     -0.88042930     +0.43242851             
a   2.2603146      Node    78.52767     -0.47294169     -0.77121771             
e   0.4580576      Incl.   11.45022     -0.03421115     -0.46714968             
P   3.40           H   23.53          G   0.15           U   8                  
Residuals in seconds of arc
240406 O18  0.0   0.2+    240409 V00  0.1+  0.1+    240411 H01  0.0   0.1-
240406 O18  0.0   0.1-    240409 V00  0.2-  0.1+    240411 H01  0.0   0.0
240406 O18  0.1+  0.1-    240409 V00  0.0   0.2-    240411 H01  0.1+  0.0
240409 V00  0.2+  0.1-    240411 H01  0.0   0.1+

Ephemeris:
2024 GA3                 a,e,i = 2.26, 0.46, 11                  q = 1.2250
Date    TT    R. A. (2000) Decl.     Delta      r    Elong.  Phase     V
2024 03 12    14 11 06.7 +31 58 33   0.3754  1.2773   132.4    35.0    23.4
...
2024 03 27    14 38 58.1 +32 24 12   0.3265  1.2422   132.6    36.2    23.0
...
2024 04 04    14 50 15.7 +31 23 27   0.3060  1.2311   133.6    36.1    22.9
...
2024 04 10    14 56 49.1 +29 54 50   0.2929  1.2264   134.9    35.3    22.8
2024 04 11    14 57 45.2 +29 36 04   0.2910  1.2259   135.2    35.2    22.7
2024 04 12    14 58 38.5 +29 16 06   0.2891  1.2256   135.5    35.0    22.7
...
2024 04 18    15 03 06.4 +26 50 30   0.2791  1.2252   137.8    33.4    22.6
...
2024 04 26    15 07 00.5 +22 26 25   0.2699  1.2298   141.8    30.4    22.4
...
2024 05 11    15 10 10.0 +11 02 41   0.2702  1.2533   151.1    22.9    22.3

A. U. Tomatic                (C) Copyright 2024 MPC           M.P.E.C. 2024-G147





More information about the Iaude mailing list